User: anonymous   Login
Location: Unspecified
(0.0000°N, 0.0000°E)
Time: 15:19:22
(UTC+00:00)
Language:

Terriers - Orbit

View from above orbital plane
View from above orbital plane
View from above satellite
View from above satellite

Ground track
Ground track

The orbit data is extracted from the following two-line orbital elements,

1 25735U 99026A   18231.58724567 +.00001554 +00000-0 +32487-4 0  9990
2 25735 097.2209 039.5629 0002899 232.9146 127.1839 15.47048603072437
Epoch (UTC): 19 August 2018 14:05:38
Eccentricity: 0.0002899
inclination: 97.2209°
perigee height: 423 km
apogee height: 427 km
right ascension of ascending node: 39.5629°
argument of perigee: 232.9146°
revolutions per day: 15.47048603
mean anomaly at epoch: 127.1839°
orbit number at epoch: 7243

The dashed part of the orbit path shows where the satellite is in the earth's shadow,  

DLR